User: anonymous   Login
Location: Unspecified
(0.0000°N, 0.0000°E)
Time: 20:59:16
(UTC+00:00)
Language:

CAS-6 - Orbit

View from above orbital plane
View from above orbital plane
View from above satellite
View from above satellite

Ground track
Ground track

The orbit data is extracted from the following two-line orbital elements,

1 44881U 19093C   22268.45213947  .00000493  00000-0  68988-4 0  9991
2 44881  97.8872 346.2037 0014052 216.7832 143.2422 14.81824326149588
Epoch (UTC): 25 September 2022 10:51:04
Eccentricity: 0.0014052
inclination: 97.8872°
perigee height: 614 km
apogee height: 633 km
right ascension of ascending node: 346.2037°
argument of perigee: 216.7832°
revolutions per day: 14.81824326
mean anomaly at epoch: 143.2422°
orbit number at epoch: 14958

The dashed part of the orbit path shows where the satellite is in the earth's shadow,  

DLR